Lid_Strength_Index
7 7 7 7 6 7 7 7 9 12 12 10 10 8 7 7 7 9 9 6 7 7 7 7 7 7 7 6 6 6 5 5 5 5 5 5 5 5
6 7 7 7 8 8 8 9 10 11 11 9 9 9 8 7 7 8 8 7 7 7 7 7 7 7 7 6 6 6 5 5 5 5 5 5 5 5
7 8 8 9 10 10 10 9 9 8 10 9 9 9 9 9 8 9 8 10 10 7 7 7 6 6 7 7 6 6 6 6 6 6 5 5 5 6
9 9 9 9 9 9 9 8 8 8 8 10 9 10 10 9 9 10 10 10 10 7 7 7 7 7 7 7 7 7 7 6 6 6 6 6 6 6
9 9 9 8 8 8 8 8 8 8 9 10 10 10 11 11 11 11 11 11 10 8 7 7 7 7 8 7 7 7 7 7 6 6 6 6 6 6
8 8 8 8 8 8 7 8 9 9 10 10 11 11 11 11 11 12 12 11 11 10 8 8 8 8 8 7 7 7 7 7 7 6 6 6 6 6
8 8 8 8 8 7 8 9 9 10 11 11 12 12 12 13 13 12 13 13 13 12 12 12 12 12 12 9 8 8 7 7 7 7 6 6 6 6
8 8 8 8 8 7 7 8 9 10 11 12 12 13 12 12 11 12 13 14 15 12 14 14 13 13 12 12 8 7 7 7 7 7 6 6 6 6
8 8 9 9 9 9 8 9 9 8 9 11 12 12 12 11 12 13 13 14 14 12 14 14 13 13 12 10 7 6 6 6 6 7 6 6 6 6
9 9 10 10 10 10 10 11 10 10 10 10 10 10 10 10 11 11 12 13 13 12 12 15 13 13 12 11 7 6 6 6 7 7 6 6 6 6
10 10 10 11 9 8 11 12 12 10 8 7 8 8 8 8 9 11 13 14 14 13 12 13 13 13 13 12 11 6 6 7 6 6 6 6 6 5
11 11 9 11 8 8 11 11 11 11 10 11 12 10 9 9 7 9 12 14 14 15 12 13 13 13 15 13 12 11 11 7 6 6 6 6 5 6
11 11 10 9 9 8 8 10 10 10 10 12 13 12 11 11 11 10 11 12 14 14 11 13 16 13 12 13 12 11 11 11 11 9 6 5 4 5
10 10 10 9 8 8 8 8 8 9 12 13 13 12 12 12 12 12 11 12 12 12 12 11 11 11 11 12 12 11 12 11 11 10 9 6 5 5
9 9 9 9 8 9 8 8 8 11 12 13 12 12 12 12 12 13 12 12 12 11 10 10 10 10 10 11 11 11 11 11 10 10 9 9 8 7
11 11 10 10 10 10 10 9 10 11 11 12 12 12 13 15 15 14 15 12 12 12 10 9 9 9 10 10 11 12 9 11 10 9 9 8 8 6
11 12 13 13 13 12 12 12 12 12 12 12 14 14 14 14 15 14 12 13 14 13 14 12 10 9 11 9 11 10 10 11 10 9 9 9 7 6
12 13 13 13 13 13 13 13 12 11 13 13 14 15 15 17 17 13 12 13 13 13 15 11 12 12 10 9 8 10 10 11 10 10 11 10 8 7
13 14 14 14 14 13 14 14 14 13 12 14 12 12 14 16 12 12 12 12 13 15 15 12 13 12 13 15 12 7 13 9 13 11 10 9 7 6
13 14 14 14 14 14 14 15 14 12 12 12 12 12 12 13 13 12 12 17 17 15 11 14 13 14 15 15 15 13 7 14 13 9 9 6 5 3
14 15 14 14 14 13 12 12 12 12 12 13 12 12 12 12 13 12 14 9 9 13 13 14 11 8 13 13 13 11 10 6 5 6 8 9 11 10
14 15 14 13 13 13 13 13 13 13 12 13 12 13 14 14 16 12 12 15 14 12 15 13 10 9 11 11 12 10 9 7 5 3 3 4 7 12
15 15 16 15 14 13 13 13 13 14 12 12 14 13 11 14 15 14 13 12 10 13 10 11 10 9 9 9 8 8 11 9 7 7 6 4 3 3